Location: Los Gatos B&B
(42.6926°N, 77.0646°W)
Time: 07:17:17
(UTC-04:00)

Amateur Radio Satellites - All Passes

Search period start: 01 September 2014 06:47
Search period end: 02 September 2014 06:47
Location: Los Gatos B&B, 42.6926°N, 77.0646°W

Satellite Date Start Highest point End Downlink Frequencies (MHz)
Time Altitude Azimuth
Saudisat 1A 01 Sep 06:58:24 07:02:40 45° 51° (NE) 07:06:53 436.775 MHz
KITSAT 1 01 Sep 07:03:25 07:10:16 29° 38° (NE) 07:17:03 435.175 FM
JAS-2 01 Sep 07:22:42 07:27:59 89° 104° (ESE) 07:33:41 435.800 - 435.900 CW/SSB, 435.910 FM
SO-67 01 Sep 07:35:40 07:38:20 21° 94° (E) 07:40:59 435.3500 MHz FM
Hamsat 01 Sep 07:43:45 07:47:51 41° 289° (WNW) 07:51:54 145.90 MHz
RS-15 01 Sep 08:00:27 08:11:25 70° 117° (ESE) 08:22:13 29.354 - 29.394 USB, Beacon 29.352 USB
UOSAT-12 01 Sep 08:13:59 08:14:57 11° 331° (NNW) 08:15:54 437.025 FM, 437.400 FM
STRAND 1 01 Sep 08:18:27 08:22:08 20° 267° (W) 08:25:50 ?
AO-7 01 Sep 08:27:12 08:31:10 15° 316° (NW) 08:35:08 29.400 - 29.500 MHz
HO-68 01 Sep 08:34:32 08:37:10 12° 86° (E) 08:39:47 435.675 MHz FM
Saudisat 1A 01 Sep 08:38:39 08:41:56 21° 248° (WSW) 08:45:13 436.775 MHz
KITSAT 1 01 Sep 08:58:29 09:06:36 83° 241° (WSW) 09:14:39 435.175 FM
SO-67 01 Sep 09:08:33 09:11:19 23° 290° (WNW) 09:14:04 435.3500 MHz FM
JAS-2 01 Sep 09:10:14 09:12:27 13° 301° (WNW) 09:14:42 435.800 - 435.900 CW/SSB, 435.910 FM
UKube-1 01 Sep 09:38:16 09:40:58 16° 92° (E) 09:43:39 145.840 MHz, 145.915 MHz
Oscar 11 01 Sep 09:43:28 09:45:13 12° 89° (E) 09:46:58 145.825 FM, Beacon 2401.500 USB
FUNcube-1 01 Sep 10:14:02 10:15:14 11° 89° (E) 10:16:27 145.950 - 145.970 MHz USB
RS-15 01 Sep 10:14:24 10:24:33 41° 322° (NW) 10:34:44 29.354 - 29.394 USB, Beacon 29.352 USB
HO-68 01 Sep 10:18:50 10:26:01 74° 105° (ESE) 10:33:10 435.675 MHz FM
ISS 01 Sep 10:36:26 10:39:44 66° 143° (SE) 10:43:02 145.800 FM
KITSAT 1 01 Sep 10:56:05 11:00:46 17° 260° (W) 11:05:27 435.175 FM
UKube-1 01 Sep 11:13:14 11:17:25 47° 289° (WNW) 11:21:35 145.840 MHz, 145.915 MHz
Oscar 11 01 Sep 11:17:29 11:21:50 63° 286° (WNW) 11:26:08 145.825 FM, Beacon 2401.500 USB
SO-50 01 Sep 11:27:59 11:32:05 28° 45° (NE) 11:36:14 436.795 FM
AO-40 01 Sep 11:43:37 06:46:47 22° 236° (WSW) 11:50:59 Beacon 2401.320
FUNcube-1 01 Sep 11:47:34 11:52:07 76° 285° (WNW) 11:56:43 145.950 - 145.970 MHz USB
HO-68 01 Sep 12:07:37 12:13:02 24° 304° (WNW) 12:18:27 435.675 MHz FM
JAS-1B 01 Sep 12:10:33 12:14:43 14° 49° (NE) 12:18:39 435.800 - 435.900 CW/SSB
ISS 01 Sep 12:13:50 12:16:42 26° 342° (NNW) 12:19:34 145.800 FM
RS-15 01 Sep 12:32:54 12:41:01 23° 356° (N) 12:49:14 29.354 - 29.394 USB, Beacon 29.352 USB
Oscar 19 01 Sep 12:49:32 12:53:41 25° 64° (ENE) 12:57:51 437.125 CW, 437.150 USB
AO-Echo 01 Sep 13:04:33 13:07:31 16° 62° (ENE) 13:10:27 ?
SO-50 01 Sep 13:08:16 13:12:50 44° 243° (WSW) 13:17:25 436.795 FM
MaSat-1 01 Sep 13:14:20 13:19:12 66° 113° (ESE) 13:24:20 437.345 MHz
UOSAT-12 01 Sep 13:18:13 13:22:18 28° 44° (NE) 13:26:19 437.025 FM, 437.400 FM
Oscar 16 01 Sep 13:23:41 13:28:40 51° 71° (ENE) 13:33:42 437.025 USB, Beacon 2401.1428
ITAMSAT 1 01 Sep 13:25:57 13:30:03 24° 64° (ENE) 13:34:09 435.822 SSB
Uribyol 2 01 Sep 13:35:00 13:39:27 31° 66° (ENE) 13:43:56 436.500 FM
TMSAT-1 01 Sep 13:46:19 13:48:43 13° 58° (ENE) 13:51:08 436.925 FM
ISS 01 Sep 13:51:55 13:54:14 17° 2° (N) 13:56:34 145.800 FM
AO-7 01 Sep 13:53:44 13:56:21 12° 40° (NE) 13:58:59 29.400 - 29.500 MHz
JAS-1B 01 Sep 13:54:18 14:03:40 56° 68° (ENE) 14:11:59 435.800 - 435.900 CW/SSB
AO-27 01 Sep 13:54:30 13:59:23 44° 69° (ENE) 14:04:17 436.795 MHz FM
Oscar 19 01 Sep 14:27:52 14:32:46 43° 262° (W) 14:37:43 437.125 CW, 437.150 USB
Gurwin Techsat 1B 01 Sep 14:32:34 14:37:34 44° 69° (ENE) 14:42:36 435.225 FM
AO-Echo 01 Sep 14:40:50 14:45:49 65° 258° (WSW) 14:50:40 ?
RS-15 01 Sep 14:48:18 14:58:01 34° 31° (NNE) 15:07:56 29.354 - 29.394 USB, Beacon 29.352 USB
MaSat-1 01 Sep 14:52:56 14:56:43 21° 312° (NW) 15:00:34 437.345 MHz
UOSAT-12 01 Sep 14:58:08 15:02:36 43° 243° (WSW) 15:07:00 437.025 FM, 437.400 FM
ITAMSAT 1 01 Sep 15:04:21 15:09:16 44° 261° (W) 15:14:13 435.822 SSB
Oscar 16 01 Sep 15:04:34 15:08:19 20° 268° (W) 15:12:06 437.025 USB, Beacon 2401.1428
Uribyol 2 01 Sep 15:14:12 15:18:51 34° 263° (W) 15:23:32 436.500 FM
TMSAT-1 01 Sep 15:22:34 15:27:52 90° 67° (ENE) 15:33:12 436.925 FM
ISS 01 Sep 15:28:42 15:31:43 31° 22° (NNE) 15:34:44 145.800 FM
Uosat F 01 Sep 15:33:58 15:37:56 24° 64° (ENE) 15:41:55 435.120 FM
AO-27 01 Sep 15:34:58 15:39:04 24° 266° (W) 15:43:12 436.795 MHz FM
AO-7 01 Sep 15:39:16 15:47:08 49° 62° (ENE) 15:55:00 29.400 - 29.500 MHz
Sapphire 01 Sep 15:40:08 15:42:30 13° 103° (ESE) 15:44:52 437.095 MHz 1200 baud AX-25 AFSK
JAS-1B 01 Sep 15:45:21 15:54:15 40° 264° (W) 16:02:22 435.800 - 435.900 CW/SSB
PCSat 01 Sep 16:07:03 16:11:24 25° 108° (ESE) 16:15:47 145.825 MHz
Gurwin Techsat 1B 01 Sep 16:13:28 16:17:43 24° 266° (W) 16:22:00 435.225 FM
RS-15 01 Sep 17:00:50 17:11:58 89° 58° (ENE) 17:23:33 29.354 - 29.394 USB, Beacon 29.352 USB
OPAL 01 Sep 17:01:00 17:05:27 28° 97° (E) 17:09:51 ?
Hamsat 01 Sep 17:03:28 17:06:03 16° 64° (ENE) 17:08:39 145.90 MHz
ISS 01 Sep 17:05:20 17:08:32 45° 220° (SW) 17:11:44 145.800 FM
TMSAT-1 01 Sep 17:07:03 17:08:30 11° 273° (W) 17:09:58 436.925 FM
Uosat F 01 Sep 17:11:44 17:16:29 42° 261° (W) 17:21:14 435.120 FM
Sapphire 01 Sep 17:19:43 17:25:08 86° 300° (WNW) 17:30:35 437.095 MHz 1200 baud AX-25 AFSK
AO-7 01 Sep 17:32:17 17:40:00 41° 261° (W) 17:47:45 29.400 - 29.500 MHz
JAS-2 01 Sep 17:35:59 17:41:31 40° 69° (ENE) 17:46:34 435.800 - 435.900 CW/SSB, 435.910 FM
PCSat 01 Sep 17:49:18 17:54:31 48° 306° (NW) 17:59:47 145.825 MHz
Hamsat 01 Sep 18:37:21 18:41:34 53° 261° (W) 18:45:51 145.90 MHz
OPAL 01 Sep 18:39:34 18:44:24 39° 294° (WNW) 18:49:12 ?
STRAND 1 01 Sep 18:48:52 18:51:56 16° 91° (E) 18:54:58 ?
HO-68 01 Sep 19:05:45 19:08:30 13° 48° (NE) 19:11:15 435.675 MHz FM
Sapphire 01 Sep 19:05:52 19:09:22 17° 320° (NW) 19:12:54 437.095 MHz 1200 baud AX-25 AFSK
RS-15 01 Sep 19:14:46 19:22:54 24° 258° (WSW) 19:31:17 29.354 - 29.394 USB, Beacon 29.352 USB
JAS-2 01 Sep 19:21:33 19:26:42 29° 264° (W) 19:31:28 435.800 - 435.900 CW/SSB, 435.910 FM
PCSat 01 Sep 19:37:49 19:39:19 11° 328° (NNW) 19:40:50 145.825 MHz
SO-67 01 Sep 19:41:25 19:44:51 61° 260° (W) 19:48:18 435.3500 MHz FM
STRAND 1 01 Sep 20:26:30 20:31:33 64° 288° (WNW) 20:36:35 ?
UKube-1 01 Sep 20:34:55 20:37:41 17° 63° (ENE) 20:40:28 145.840 MHz, 145.915 MHz
Oscar 11 01 Sep 20:40:08 20:41:42 12° 61° (ENE) 20:43:16 145.825 FM, Beacon 2401.500 USB
HO-68 01 Sep 20:47:48 20:54:46 60° 68° (ENE) 21:01:46 435.675 MHz FM
MaSat-1 01 Sep 21:32:05 21:35:29 20° 47° (NE) 21:38:36 437.345 MHz
KITSAT 1 01 Sep 21:38:53 21:41:04 11° 97° (E) 21:43:15 435.175 FM
UKube-1 01 Sep 22:09:18 22:13:31 49° 260° (W) 22:17:44 145.840 MHz, 145.915 MHz
Oscar 11 01 Sep 22:12:56 22:17:16 74° 258° (WSW) 22:21:39 145.825 FM, Beacon 2401.500 USB
HO-68 01 Sep 22:37:01 22:42:52 27° 266° (W) 22:48:45 435.675 MHz FM
Saudisat 1A 01 Sep 22:44:32 22:48:56 84° 123° (ESE) 22:53:23 436.775 MHz
FUNcube-1 01 Sep 22:44:45 22:48:56 87° 257° (WSW) 22:53:15 145.950 - 145.970 MHz USB
MaSat-1 01 Sep 23:08:31 23:12:52 48° 250° (WSW) 23:16:37 437.345 MHz
KITSAT 1 01 Sep 23:26:55 23:34:52 65° 116° (ESE) 23:42:52 435.175 FM
Sapphire 02 Sep 00:24:42 00:28:16 17° 40° (NE) 00:31:49 437.095 MHz 1200 baud AX-25 AFSK
Saudisat 1A 02 Sep 00:26:24 00:29:07 16° 322° (NW) 00:31:51 436.775 MHz
PCSat 02 Sep 00:53:23 00:58:00 27° 47° (NE) 01:02:36 145.825 MHz
KITSAT 1 02 Sep 01:23:31 01:30:47 35° 317° (NW) 01:38:06 435.175 FM
Oscar 16 02 Sep 01:35:46 01:39:08 17° 91° (E) 01:42:29 437.025 USB, Beacon 2401.1428
Sapphire 02 Sep 02:07:02 02:12:30 87° 60° (ENE) 02:17:56 437.095 MHz 1200 baud AX-25 AFSK
AO-27 02 Sep 02:08:12 02:10:59 14° 90° (E) 02:13:46 436.795 MHz FM
PCSat 02 Sep 02:36:26 02:41:41 51° 246° (WSW) 02:46:53 145.825 MHz
Oscar 19 02 Sep 02:38:22 02:43:33 64° 101° (ESE) 02:48:41 437.125 CW, 437.150 USB
AO-Echo 02 Sep 02:47:26 02:51:46 36° 97° (E) 02:56:06 ?
Gurwin Techsat 1B 02 Sep 02:49:08 02:52:26 17° 90° (E) 02:55:42 435.225 FM
Oscar 16 02 Sep 03:13:46 03:18:54 61° 288° (WNW) 03:23:59 437.025 USB, Beacon 2401.1428
ITAMSAT 1 02 Sep 03:16:07 03:21:16 62° 102° (ESE) 03:26:24 435.822 SSB
SO-50 02 Sep 03:23:44 03:28:03 50° 118° (ESE) 03:32:29 436.795 FM
KITSAT 1 02 Sep 03:24:57 03:29:05 15° 345° (NNW) 03:33:14 435.175 FM
Uribyol 2 02 Sep 03:25:25 03:30:39 80° 104° (ESE) 03:35:51 436.500 FM
JAS-1B 02 Sep 03:31:12 03:37:53 72° 102° (ESE) 03:43:41 435.800 - 435.900 CW/SSB
TMSAT-1 02 Sep 03:37:59 03:42:47 34° 96° (E) 03:47:33 436.925 FM
AO-7 02 Sep 03:43:16 03:46:02 12° 86° (E) 03:48:47 29.400 - 29.500 MHz
AO-27 02 Sep 03:45:50 03:51:01 71° 287° (WNW) 03:56:10 436.795 MHz FM
Sapphire 02 Sep 03:52:47 03:55:07 13° 258° (WSW) 03:57:27 437.095 MHz 1200 baud AX-25 AFSK
OPAL 02 Sep 04:16:25 04:21:20 53° 69° (ENE) 04:26:21 ?
Oscar 19 02 Sep 04:18:56 04:22:23 18° 299° (WNW) 04:25:48 437.125 CW, 437.150 USB
AO-Echo 02 Sep 04:26:35 04:30:23 25° 294° (WNW) 04:34:11 ?
Gurwin Techsat 1B 02 Sep 04:27:35 04:32:51 65° 287° (WNW) 04:38:05 435.225 FM
ITAMSAT 1 02 Sep 04:56:47 05:00:16 19° 299° (WNW) 05:03:45 435.822 SSB
SO-50 02 Sep 05:05:16 05:08:53 23° 318° (NW) 05:12:35 436.795 FM
Uribyol 2 02 Sep 05:06:40 05:09:27 15° 301° (WNW) 05:12:14 436.500 FM
UOSAT-12 02 Sep 05:09:37 05:14:02 48° 118° (ESE) 05:18:34 437.025 FM, 437.400 FM
TMSAT-1 02 Sep 05:17:59 05:22:38 32° 293° (WNW) 05:27:16 436.925 FM
Uosat F 02 Sep 05:18:20 05:23:16 55° 101° (E) 05:28:09 435.120 FM
JAS-1B 02 Sep 05:23:06 05:27:39 20° 306° (NW) 05:31:50 435.800 - 435.900 CW/SSB
KITSAT 1 02 Sep 05:24:19 05:28:40 15° 17° (NNE) 05:33:00 435.175 FM
AO-27 02 Sep 05:29:20 05:29:35 10° 305° (NW) 05:29:50 436.795 MHz FM
AO-7 02 Sep 05:32:02 05:40:18 68° 105° (ESE) 05:48:31 29.400 - 29.500 MHz
Saudisat 1A 02 Sep 05:32:23 05:34:47 14° 36° (NE) 05:37:10 436.775 MHz
OPAL 02 Sep 05:56:55 06:00:32 19° 266° (W) 06:04:12 ?
STRAND 1 02 Sep 06:05:15 06:09:24 26° 65° (ENE) 06:13:34 ?
Hamsat 02 Sep 06:22:47 06:26:25 26° 94° (E) 06:30:01 145.90 MHz
JAS-2 02 Sep 06:28:07 06:32:47 30° 97° (E) 06:37:47 435.800 - 435.900 CW/SSB, 435.910 FM
